CW4141 Weather Reports


Display with metric or nautical units.
time (UTC)temp
F
wind
direction
speed
MPH
gust
MPH
rain 1hr
in
rain 24hr
in
rain mn
in
humidity
%
barometer
mb
20260902050035 67 225 0.0 3.0 0.00 0.00 0.00 55 1012.7
20260902044558 68 225 0.0 1.0 0.00 0.00 0.00 54 1016.6
20260902044531 68 225 0.0 1.0 0.00 0.00 0.00 54 1012.4
20260902043057 69 0 0.0 0.0 0.00 0.00 0.00 53 1016.5
20260902043028 69 225 0.0 0.0 0.00 0.00 0.00 53 1012.3
20260902041603 69 0 0.0 1.0 0.00 0.00 0.00 56 1016.2
20260902041537 69 225 0.0 1.0 0.00 0.00 0.00 56 1012.1
20260902040107 70 0 0.0 1.0 0.00 0.00 0.00 51 1016.2
20260902040027 70 225 0.0 1.0 0.00 0.00 0.00 51 1011.9
20260902034601 71 0 0.0 4.0 0.00 0.00 0.00 50 1015.9
20260902034526 71 225 0.0 3.0 0.00 0.00 0.00 50 1011.7
20260902033101 71 0 0.0 5.0 0.00 0.00 0.00 50 1015.6
20260902033026 72 227 0.0 5.0 0.00 0.00 0.00 51 1011.3
20260902031558 73 163 2.0 5.0 0.00 0.00 0.00 46 1015.4
20260902031525 73 163 1.0 4.0 0.00 0.00 0.00 47 1011.2
20260902030058 74 170 0.0 6.0 0.00 0.00 0.00 43 1015.4
20260902030024 74 170 0.0 5.0 0.00 0.00 0.00 44 1011.2
20260902024557 75 169 1.0 5.0 0.00 0.00 0.00 41 1015.2
20260902024524 75 171 0.0 4.0 0.00 0.00 0.00 41 1010.9
20260902023107 76 204 1.0 5.0 0.00 0.00 0.00 38 1015.0
20260902023024 76 204 2.0 5.0 0.00 0.00 0.00 39 1010.7
20260902021601 77 0 1.0 5.0 0.00 0.00 0.00 35 1014.8
20260902021528 77 217 1.0 5.0 0.00 0.00 0.00 35 1010.7
20260902020058 78 199 2.0 6.0 0.00 0.00 0.00 34 1014.8
20260902020023 78 199 2.0 6.0 0.00 0.00 0.00 34 1010.7
20260902014600 80 133 2.0 7.0 0.00 0.00 0.00 32 1014.9
20260902014528 80 231 2.0 7.0 0.00 0.00 0.00 33 1010.6
20260902013058 81 180 1.0 7.0 0.00 0.00 0.00 30 1014.7
20260902013022 81 182 2.0 7.0 0.00 0.00 0.00 30 1010.6
20260902011557 82 146 2.0 7.0 0.00 0.00 0.00 29 1014.7
20260902011525 82 146 3.0 6.0 0.00 0.00 0.00 29 1010.4
20260902010058 83 206 2.0 7.0 0.00 0.00 0.00 28 1014.5
20260902010038 83 204 2.0 6.0 0.00 0.00 0.00 28 1010.3
20260902004558 84 211 1.0 9.0 0.00 0.00 0.00 27 1014.5
20260902004520 84 211 2.0 8.0 0.00 0.00 0.00 27 1010.4
20260902003055 84 226 2.0 10.0 0.00 0.00 0.00 26 1014.6
20260902003019 84 219 2.0 8.0 0.00 0.00 0.00 26 1010.5
20260902001619 85 228 3.0 8.0 0.00 0.00 0.00 25 1014.7
20260902001519 85 129 3.0 8.0 0.00 0.00 0.00 26 1010.6
20260902000104 86 234 2.0 9.0 0.00 0.00 0.00 25 1014.6
20260902000032 86 137 2.0 7.0 0.00 0.00 0.00 25 1010.6
20260901234604 87 0 1.0 9.0 0.00 0.00 0.00 24 1014.6
20260901234516 87 192 1.0 5.0 0.00 0.00 0.00 25 1010.6
20260901233101 88 200 0.0 8.0 0.00 0.00 0.00 23 1014.6
20260901233016 88 202 0.0 7.0 0.00 0.00 0.00 24 1010.6
20260901231604 88 146 3.0 9.0 0.00 0.00 0.00 21 1014.7
20260901231517 88 217 3.0 9.0 0.00 0.00 0.00 22 1010.6
20260901230105 89 225 3.0 10.0 0.00 0.00 0.00 21 1014.6
20260901230026 89 121 3.0 10.0 0.00 0.00 0.00 21 1010.7
20260901224555 90 183 1.0 10.0 0.00 0.00 0.00 21 1014.7
20260901224517 90 186 2.0 10.0 0.00 0.00 0.00 22 1010.8
20260901223059 91 190 2.0 9.0 0.00 0.00 0.00 23 1014.8
20260901223034 91 189 2.0 9.0 0.00 0.00 0.00 24 1010.9
20260901221618 91 221 2.0 8.0 0.00 0.00 0.00 24 1015.1
20260901221513 91 200 2.0 7.0 0.00 0.00 0.00 24 1011.1
20260901220116 91 213 1.0 7.0 0.00 0.00 0.00 24 1015.1
20260901220011 91 212 2.0 6.0 0.00 0.00 0.00 24 1011.1
20260901214557 92 223 2.0 8.0 0.00 0.00 0.00 24 1015.2
20260901214513 92 222 2.0 7.0 0.00 0.00 0.00 25 1011.1
20260901213052 92 234 1.0 8.0 0.00 0.00 0.00 25 1015.4
20260901213010 92 225 2.0 7.0 0.00 0.00 0.00 26 1011.2
20260901211557 91 216 3.0 7.0 0.00 0.00 0.00 26 1015.4
20260901211521 91 153 3.0 6.0 0.00 0.00 0.00 26 1011.3
20260901210057 92 215 1.0 9.0 0.00 0.00 0.00 24 1015.4
20260901210008 92 210 1.0 8.0 0.00 0.00 0.00 25 1011.3
20260901204555 92 0 1.0 5.0 0.00 0.00 0.00 23 1015.3
20260901204510 92 173 2.0 5.0 0.00 0.00 0.00 23 1011.6
20260901203056 92 217 1.0 4.0 0.00 0.00 0.00 24 1015.5
20260901203005 92 217 1.0 4.0 0.00 0.00 0.00 24 1011.7
20260901201600 91 210 1.0 7.0 0.00 0.00 0.00 22 1015.7
20260901201504 91 219 2.0 6.0 0.00 0.00 0.00 23 1011.8
20260901200056 92 226 1.0 8.0 0.00 0.00 0.00 22 1015.9
20260901200009 92 226 2.0 8.0 0.00 0.00 0.00 22 1012.1
20260901194557 91 0 1.0 7.0 0.00 0.00 0.00 21 1016.1
20260901194502 91 107 1.0 5.0 0.00 0.00 0.00 21 1012.3
20260901193116 91 182 0.0 2.0 0.00 0.00 0.00 23 1012.4
20260901193052 91 0 0.0 3.0 0.00 0.00 0.00 24 1016.3
20260901191610 91 0 0.0 4.0 0.00 0.00 0.00 22 1016.3
20260901191558 91 182 0.0 3.0 0.00 0.00 0.00 23 1012.5
20260901190055 89 0 0.0 4.0 0.00 0.00 0.00 24 1016.5
20260901184553 89 0 1.0 8.0 0.00 0.00 0.00 23 1016.7
20260901184550 89 180 0.0 7.0 0.00 0.00 0.00 24 1012.8
20260901183102 88 0 0.0 3.0 0.00 0.00 0.00 26 1016.8
20260901183047 88 234 0.0 3.0 0.00 0.00 0.00 26 1012.8
20260901181605 87 0 0.0 3.0 0.00 0.00 0.00 30 1016.8
20260901181543 87 234 0.0 3.0 0.00 0.00 0.00 31 1012.9
20260901180055 86 0 0.0 2.0 0.00 0.00 0.00 31 1016.9
20260901180038 86 232 0.0 2.0 0.00 0.00 0.00 32 1013.0
20260901174552 84 0 0.0 3.0 0.00 0.00 0.00 34 1017.0
20260901174542 84 232 0.0 3.0 0.00 0.00 0.00 37 1013.0
20260901173103 83 0 0.0 3.0 0.00 0.00 0.00 39 1016.8
20260901173029 83 232 0.0 3.0 0.00 0.00 0.00 39 1012.9
20260901171602 81 0 0.0 2.0 0.00 0.00 0.00 41 1016.8
20260901171525 81 232 0.0 2.0 0.00 0.00 0.00 41 1012.9
20260901170100 80 0 0.0 1.0 0.00 0.00 0.00 43 1016.9
20260901170030 80 232 0.0 1.0 0.00 0.00 0.00 43 1012.9
20260901164556 78 0 0.0 0.0 0.00 0.00 0.00 44 1016.7
20260901164518 78 232 0.0 0.0 0.00 0.00 0.00 45 1012.9
20260901163107 76 0 0.0 0.0 0.00 0.00 0.00 47 1016.8
20260901163019 76 232 0.0 0.0 0.00 0.00 0.00 48 1012.8
20260901161611 73 0 0.0 0.0 0.00 0.00 0.00 57 1016.7
20260901161509 73 231 0.0 0.0 0.00 0.00 0.00 58 1012.8
20260901160113 70 0 0.0 0.0 0.00 0.00 0.00 65 1016.6
20260901160005 70 232 0.0 0.0 0.00 0.00 0.00 66 1012.8
20260901154608 67 232 0.0 0.0 0.00 0.00 0.00 75 1012.7
20260901154605 66 0 0.0 0.0 0.00 0.00 0.00 75 1016.5
20260901153123 64 232 0.0 0.0 0.00 0.00 0.00 82 1012.8
20260901153105 63 0 0.0 0.0 0.00 0.00 0.00 82 1016.5
20260901151611 61 0 0.0 0.0 0.00 0.00 0.00 85 1016.5
20260901151558 61 232 0.0 0.0 0.00 0.00 0.00 85 1012.5
20260901150058 59 0 0.0 0.0 0.00 0.00 0.00 85 1016.6
20260901150054 59 232 0.0 0.0 0.00 0.00 0.00 86 1012.4
20260901144559 58 0 0.0 0.0 0.00 0.00 0.00 86 1016.5
20260901144553 58 232 0.0 0.0 0.00 0.00 0.00 86 1012.4
20260901143105 57 0 0.0 0.0 0.00 0.00 0.00 83 1016.4
20260901143050 57 232 0.0 0.0 0.00 0.00 0.00 83 1012.4
20260901141559 56 0 0.0 0.0 0.00 0.00 0.00 81 1016.3
20260901141548 56 232 0.0 0.0 0.00 0.00 0.00 81 1012.3
20260901140058 56 0 0.0 0.0 0.00 0.00 0.00 79 1016.2
20260901140046 56 232 0.0 0.0 0.00 0.00 0.00 80 1012.2
20260901134558 56 0 0.0 0.0 0.00 0.00 0.00 78 1015.9
20260901134544 56 232 0.0 0.0 0.00 0.00 0.00 78 1011.8
20260901133057 56 0 0.0 0.0 0.00 0.00 0.00 78 1015.7
20260901133043 56 232 0.0 0.0 0.00 0.00 0.00 78 1011.7
20260901131601 56 0 0.0 0.0 0.00 0.00 0.00 77 1015.5
20260901131543 56 232 0.0 0.0 0.00 0.00 0.00 78 1011.5
20260901130054 57 232 0.0 0.0 0.00 0.00 0.00 77 1011.3
20260901124556 57 0 0.0 0.0 0.00 0.00 0.00 76 1015.4
20260901124538 57 155 0.0 0.0 0.00 0.00 0.00 77 1011.2
20260901123055 57 0 0.0 0.0 0.00 0.00 0.00 76 1015.4
20260901123042 57 155 0.0 0.0 0.00 0.00 0.00 77 1011.4
20260901121559 57 0 0.0 0.0 0.00 0.00 0.00 76 1015.4
20260901121538 57 155 0.0 0.0 0.00 0.00 0.00 76 1011.5
20260901120054 58 0 0.0 0.0 0.00 0.00 0.00 75 1015.5
20260901120034 58 155 0.0 0.0 0.00 0.00 0.00 76 1011.5
20260901114643 58 0 0.0 0.0 0.00 0.00 0.00 74 1015.4
20260901114531 58 155 0.0 0.0 0.00 0.00 0.00 75 1011.6
20260901113101 58 0 0.0 0.0 0.00 0.00 0.00 74 1015.7
20260901113030 58 155 0.0 0.0 0.00 0.00 0.00 74 1011.6
20260901111558 58 0 0.0 0.0 0.00 0.00 0.00 73 1015.7
20260901111529 58 155 0.0 0.0 0.00 0.00 0.00 73 1011.7
20260901110058 59 0 0.0 0.0 0.00 0.00 0.00 73 1016.0
20260901110027 59 155 0.0 0.0 0.00 0.00 0.00 73 1011.8
20260901104603 59 0 0.0 0.0 0.00 0.00 0.00 72 1015.9
20260901104529 59 155 0.0 0.0 0.00 0.00 0.00 72 1011.7
20260901103059 59 0 0.0 0.0 0.00 0.00 0.00 72 1015.7
20260901103022 59 155 0.0 0.0 0.00 0.00 0.00 72 1011.6
20260901101601 60 0 0.0 0.0 0.00 0.00 0.00 72 1015.8
20260901101520 60 155 0.0 0.0 0.00 0.00 0.00 73 1011.6
20260901100024 60 155 0.0 0.0 0.00 0.00 0.00 72 1011.6
20260901094558 61 0 0.0 0.0 0.00 0.00 0.00 71 1015.7
20260901094516 61 155 0.0 0.0 0.00 0.00 0.00 72 1011.5
20260901093104 61 0 0.0 0.0 0.00 0.00 0.00 70 1015.6
20260901093014 61 155 0.0 0.0 0.00 0.00 0.00 71 1011.3
20260901091612 61 0 0.0 0.0 0.00 0.00 0.00 70 1015.6
20260901091513 61 155 0.0 0.0 0.00 0.00 0.00 70 1011.3
20260901090056 62 0 0.0 0.0 0.00 0.00 0.00 69 1015.6
20260901090015 62 155 0.0 0.0 0.00 0.00 0.00 69 1011.4
20260901084558 62 0 0.0 0.0 0.00 0.00 0.00 68 1015.7
20260901084510 62 155 0.0 0.0 0.00 0.00 0.00 69 1011.5
20260901083059 62 0 0.0 0.0 0.00 0.00 0.00 68 1015.8
20260901083023 62 155 0.0 0.0 0.00 0.00 0.00 68 1011.5
20260901081556 63 0 0.0 0.0 0.00 0.00 0.00 67 1015.8
20260901081506 63 155 0.0 0.0 0.00 0.00 0.00 68 1011.6
20260901080108 63 0 0.0 0.0 0.00 0.00 0.00 67 1015.9
20260901080004 64 155 0.0 0.0 0.00 0.00 0.00 67 1011.7
20260901074603 64 0 0.0 0.0 0.00 0.00 0.00 67 1016.0
20260901074506 64 155 0.0 0.0 0.00 0.00 0.00 68 1011.7
20260901073104 65 0 0.0 0.0 0.00 0.00 0.00 68 1016.0
20260901073059 65 155 0.0 0.0 0.00 0.00 0.00 68 1011.6
20260901071606 65 0 0.0 0.0 0.00 0.00 0.00 67 1015.9
20260901071557 65 155 0.0 0.0 0.00 0.00 0.00 68 1011.5
20260901070107 66 0 0.0 0.0 0.00 0.00 0.00 68 1015.9
20260901070055 66 155 0.0 0.0 0.00 0.00 0.00 68 1011.5
20260901064601 66 0 0.0 0.0 0.00 0.00 0.00 67 1015.7
20260901064558 66 155 0.0 0.0 0.00 0.00 0.00 67 1011.5
20260901063058 67 0 0.0 0.0 0.00 0.00 0.00 66 1015.7
20260901063055 67 155 0.0 0.0 0.00 0.00 0.00 67 1011.3
20260901061559 67 0 0.0 0.0 0.00 0.00 0.00 67 1015.6
20260901061556 67 155 0.0 0.0 0.00 0.00 0.00 67 1011.3
20260901060057 67 0 0.0 1.0 0.00 0.00 0.00 66 1015.7
20260901060053 67 155 0.0 1.0 0.00 0.00 0.00 67 1011.4
20260901054553 68 155 0.0 0.0 0.00 0.00 0.00 66 1011.3
20260901053118 68 155 0.0 1.0 0.00 0.00 0.00 65 1011.4
20260901053057 68 0 0.0 1.0 0.00 0.00 0.00 65 1015.7
20260901051556 69 0 0.0 0.0 0.00 0.00 0.00 63 1015.7
20260901051551 69 155 0.0 0.0 0.00 0.00 0.00 64 1011.3